YFC93 WSSL-WSSL

Flight info

Callsign YFC93
Flight time 0h 31m
Altitude 8000
Route OMKOM DCT NYLON DCT WSSS DCT SJ DCT WSAP DCT RECHI
Aircraft DA42/L-SBDGRY/S

Departure

Time 2026-05-05 13:48
Airport Seletar Airport (WSSL)

Arrival

Time 2026-05-05 14:20
Airport Seletar Airport (WSSL)
Time Latitude Longitude Altitude Speed Heading
2026-05-05 13:27 1.41647 103.86494 32 ft 0 kts 212°
2026-05-05 13:44 1.41646 103.86494 32 ft 0 kts 212°
2026-05-05 13:44 1.41594 103.86485 33 ft 12 kts 114°
2026-05-05 13:45 1.41553 103.86552 33 ft 10 kts 121°
2026-05-05 13:45 1.41550 103.86557 33 ft 0 kts 122°
2026-05-05 13:46 1.41544 103.86565 33 ft 6 kts 122°
2026-05-05 13:46 1.41508 103.86617 34 ft 12 kts 136°
2026-05-05 13:46 1.41429 103.86594 35 ft 15 kts 212°
2026-05-05 13:47 1.41337 103.86519 37 ft 19 kts 201°
2026-05-05 13:47 1.41304 103.86538 36 ft 2 kts 14°
2026-05-05 13:47 1.41370 103.86555 36 ft 17 kts 33°
2026-05-05 13:47 1.41576 103.86689 32 ft 66 kts 33°
2026-05-05 13:48 1.42026 103.86979 226 ft 80 kts 32°
2026-05-05 13:48 1.42473 103.87278 504 ft 76 kts 34°
2026-05-05 13:48 1.42929 103.87574 745 ft 79 kts 27°
2026-05-05 13:48 1.43378 103.87424 1030 ft 74 kts 294°
2026-05-05 13:49 1.43270 103.86927 1242 ft 81 kts 242°
2026-05-05 13:49 1.42984 103.86426 1491 ft 85 kts 236°
2026-05-05 13:49 1.42636 103.85955 1752 ft 85 kts 227°
2026-05-05 13:49 1.42230 103.85537 2035 ft 82 kts 220°
2026-05-05 13:50 1.41800 103.85206 2359 ft 73 kts 213°
2026-05-05 13:50 1.41390 103.84955 2646 ft 70 kts 205°
2026-05-05 13:50 1.40946 103.84893 2910 ft 70 kts 153°
2026-05-05 13:50 1.40690 103.85343 3106 ft 81 kts 103°
2026-05-05 13:51 1.40582 103.85896 3420 ft 75 kts 96°
2026-05-05 13:51 1.40565 103.86403 3692 ft 73 kts 68°
2026-05-05 13:51 1.40984 103.86754 3763 ft 96 kts 31°
2026-05-05 13:51 1.41559 103.87070 4099 ft 84 kts 24°
2026-05-05 13:52 1.42096 103.87325 4353 ft 87 kts 25°
2026-05-05 13:52 1.42632 103.87492 4676 ft 78 kts 347°
2026-05-05 13:52 1.42814 103.87096 4971 ft 66 kts 252°
2026-05-05 13:52 1.42587 103.86619 5105 ft 84 kts 237°
2026-05-05 13:53 1.42187 103.86134 5219 ft 102 kts 226°
2026-05-05 13:53 1.41630 103.85596 5241 ft 121 kts 222°
2026-05-05 13:53 1.41004 103.85059 5272 ft 116 kts 219°
2026-05-05 13:53 1.40368 103.84572 5279 ft 115 kts 215°
2026-05-05 13:54 1.39940 103.84282 5328 ft 108 kts 216°
2026-05-05 13:54 1.39420 103.83736 5328 ft 109 kts 231°
2026-05-05 13:54 1.39202 103.83040 5354 ft 107 kts 264°
2026-05-05 13:54 1.39102 103.82300 5372 ft 106 kts 260°
2026-05-05 13:55 1.38995 103.81563 5388 ft 106 kts 263°
2026-05-05 13:55 1.38874 103.80865 5485 ft 99 kts 255°
2026-05-05 13:55 1.38697 103.80162 5446 ft 107 kts 257°
2026-05-05 13:55 1.38563 103.79452 5543 ft 97 kts 280°
2026-05-05 13:56 1.38998 103.78952 5570 ft 99 kts 324°
2026-05-05 13:56 1.39559 103.78537 5579 ft 102 kts 322°
2026-05-05 13:56 1.40183 103.78276 5614 ft 99 kts
2026-05-05 13:56 1.40887 103.78383 5549 ft 105 kts 11°
2026-05-05 13:57 1.41604 103.78535 5542 ft 106 kts 13°
2026-05-05 13:57 1.42332 103.78696 5525 ft 107 kts 15°
2026-05-05 13:57 1.42751 103.79215 5541 ft 104 kts 93°
2026-05-05 13:57 1.42474 103.79875 5536 ft 105 kts 117°
2026-05-05 13:58 1.42167 103.80524 5575 ft 102 kts 113°
2026-05-05 13:58 1.41902 103.81185 5603 ft 102 kts 109°
2026-05-05 13:58 1.41690 103.81866 5608 ft 104 kts 104°
2026-05-05 13:58 1.41564 103.82565 5648 ft 100 kts 97°
2026-05-05 13:59 1.41162 103.83860 5989 ft 91 kts 110°
2026-05-05 13:59 1.40989 103.84462 6286 ft 88 kts 102°
2026-05-05 14:00 1.40310 103.85332 6839 ft 81 kts 165°
2026-05-05 14:00 1.39735 103.85395 7093 ft 80 kts 171°
2026-05-05 14:00 1.39179 103.85499 7331 ft 83 kts 169°
2026-05-05 14:00 1.38630 103.85638 7607 ft 80 kts 163°
2026-05-05 14:01 1.38095 103.85799 7841 ft 83 kts 163°
2026-05-05 14:01 1.37535 103.85989 8013 ft 95 kts 159°
2026-05-05 14:01 1.36825 103.86270 7824 ft 117 kts 158°
2026-05-05 14:01 1.36121 103.86580 7771 ft 102 kts 154°
2026-05-05 14:02 1.35535 103.86887 7764 ft 89 kts 151°
2026-05-05 14:02 1.34961 103.87093 7538 ft 100 kts 187°
2026-05-05 14:02 1.34457 103.86643 7348 ft 101 kts 257°
2026-05-05 14:02 1.34556 103.86003 7303 ft 94 kts 283°
2026-05-05 14:03 1.34727 103.85382 7262 ft 90 kts 284°
2026-05-05 14:03 1.34881 103.84811 7286 ft 78 kts 283°
2026-05-05 14:03 1.35236 103.84429 7232 ft 79 kts 322°
2026-05-05 14:03 1.35682 103.84129 7205 ft 76 kts 325°
2026-05-05 14:04 1.36137 103.83817 7037 ft 85 kts 325°
2026-05-05 14:04 1.36644 103.83483 6813 ft 90 kts 327°
2026-05-05 14:04 1.37135 103.83179 6681 ft 86 kts 329°
2026-05-05 14:04 1.37644 103.82885 6515 ft 85 kts 330°
2026-05-05 14:05 1.38209 103.82603 6336 ft 91 kts 335°
2026-05-05 14:05 1.38772 103.82335 6190 ft 86 kts 332°
2026-05-05 14:05 1.39281 103.82051 6035 ft 84 kts 331°
2026-05-05 14:05 1.39794 103.81782 5861 ft 83 kts 331°
2026-05-05 14:06 1.40297 103.81508 5692 ft 83 kts 330°
2026-05-05 14:06 1.40811 103.81246 5526 ft 81 kts 335°
2026-05-05 14:06 1.41332 103.80982 5332 ft 83 kts 330°
2026-05-05 14:06 1.41825 103.80695 5173 ft 81 kts 328°
2026-05-05 14:07 1.42308 103.80390 5002 ft 82 kts 326°
2026-05-05 14:07 1.42606 103.79948 4887 ft 76 kts 298°
2026-05-05 14:07 1.42858 103.79514 4817 ft 71 kts 301°
2026-05-05 14:07 1.43114 103.79087 4786 ft 72 kts 300°
2026-05-05 14:08 1.43342 103.78629 4766 ft 74 kts 291°
2026-05-05 14:08 1.43488 103.78137 4770 ft 72 kts 267°
2026-05-05 14:08 1.43213 103.77728 4763 ft 74 kts 224°
2026-05-05 14:08 1.42833 103.77366 4730 ft 79 kts 222°
2026-05-05 14:09 1.42419 103.77035 4701 ft 74 kts 216°
2026-05-05 14:09 1.41993 103.76698 4578 ft 81 kts 218°
2026-05-05 14:09 1.41564 103.76333 4377 ft 84 kts 229°
2026-05-05 14:09 1.41196 103.75887 4227 ft 79 kts 229°
2026-05-05 14:10 1.40857 103.75488 4171 ft 74 kts 230°
2026-05-05 14:10 1.40393 103.75404 4134 ft 73 kts 150°
2026-05-05 14:10 1.39989 103.75735 4033 ft 80 kts 149°
2026-05-05 14:10 1.39755 103.76193 4026 ft 81 kts 108°
2026-05-05 14:11 1.39602 103.76780 3843 ft 82 kts 104°
2026-05-05 14:11 1.39420 103.77286 3700 ft 81 kts 129°
2026-05-05 14:11 1.39061 103.77706 3574 ft 77 kts 132°
2026-05-05 14:11 1.38717 103.78088 3520 ft 75 kts 133°
2026-05-05 14:12 1.38411 103.78489 3533 ft 73 kts 124°
2026-05-05 14:12 1.38392 103.78967 3544 ft 77 kts 49°
2026-05-05 14:12 1.38636 103.79430 3533 ft 82 kts 84°
2026-05-05 14:12 1.38746 103.79978 3569 ft 79 kts 77°
2026-05-05 14:13 1.38857 103.80578 3545 ft 97 kts 87°
2026-05-05 14:13 1.38882 103.81288 3521 ft 100 kts 89°
2026-05-05 14:13 1.38923 103.81901 3434 ft 87 kts 87°
2026-05-05 14:13 1.38977 103.82490 3251 ft 88 kts 86°
2026-05-05 14:14 1.39012 103.83096 3089 ft 83 kts 89°
2026-05-05 14:14 1.39059 103.83661 2928 ft 83 kts 90°
2026-05-05 14:14 1.39092 103.84253 2713 ft 86 kts 87°
2026-05-05 14:14 1.39180 103.84855 2478 ft 91 kts 78°
2026-05-05 14:15 1.39416 103.85458 2217 ft 93 kts 61°
2026-05-05 14:15 1.39857 103.85950 1943 ft 96 kts 42°
2026-05-05 14:15 1.40392 103.86386 1656 ft 97 kts 40°
2026-05-05 14:15 1.40913 103.86756 1517 ft 88 kts 36°
2026-05-05 14:16 1.41437 103.87083 1252 ft 93 kts 31°
2026-05-05 14:16 1.41977 103.87359 1150 ft 81 kts 26°
2026-05-05 14:16 1.42493 103.87357 1049 ft 75 kts 328°
2026-05-05 14:16 1.42828 103.86965 898 ft 76 kts 292°
2026-05-05 14:17 1.42916 103.86462 775 ft 74 kts 264°
2026-05-05 14:17 1.42739 103.86013 667 ft 68 kts 229°
2026-05-05 14:17 1.42387 103.85694 587 ft 66 kts 216°
2026-05-05 14:17 1.42002 103.85420 605 ft 71 kts 211°
2026-05-05 14:18 1.41608 103.85184 658 ft 64 kts 206°
2026-05-05 14:18 1.41156 103.84967 725 ft 78 kts 195°
2026-05-05 14:18 1.40729 103.85110 753 ft 64 kts 126°
2026-05-05 14:18 1.40503 103.85526 578 ft 74 kts 112°
2026-05-05 14:19 1.40600 103.86019 307 ft 81 kts 49°
2026-05-05 14:19 1.41071 103.86352 60 ft 80 kts 32°
2026-05-05 14:19 1.41494 103.86633 34 ft 67 kts 33°
2026-05-05 14:19 1.41844 103.86858 28 ft 54 kts 34°
2026-05-05 14:20 1.42080 103.87015 22 ft 35 kts 36°
2026-05-05 14:20 1.42238 103.87111 20 ft 17 kts
2026-05-05 14:20 1.42270 103.87076 20 ft 9 kts 302°
2026-05-05 14:20 1.42294 103.87038 19 ft 0 kts 302°
2026-05-05 14:21 1.42315 103.87004 19 ft 10 kts 284°
2026-05-05 14:21 1.42259 103.86947 20 ft 14 kts 212°
2026-05-05 14:22 1.42188 103.86901 21 ft 11 kts 216°
2026-05-05 14:22 1.42126 103.86860 23 ft 10 kts 212°
2026-05-05 14:22 1.42057 103.86815 24 ft 13 kts 217°
2026-05-05 14:22 1.41972 103.86760 25 ft 16 kts 214°
2026-05-05 14:23 1.41876 103.86696 27 ft 17 kts 212°
2026-05-05 14:23 1.41781 103.86633 29 ft 13 kts 213°
2026-05-05 14:23 1.41699 103.86581 31 ft 15 kts 214°
2026-05-05 14:23 1.41686 103.86572 31 ft 0 kts 215°
2026-05-05 14:24 1.41675 103.86566 31 ft 8 kts 211°
2026-05-05 14:24 1.41594 103.86512 33 ft 14 kts 215°
2026-05-05 14:24 1.41585 103.86504 33 ft 0 kts 224°
2026-05-05 14:24 1.41584 103.86490 33 ft 6 kts 287°
2026-05-05 14:25 1.41627 103.86440 33 ft 13 kts 356°
2026-05-05 14:25 1.41683 103.86470 32 ft 7 kts 33°
2026-05-05 14:25 1.41679 103.86515 31 ft 9 kts 121°
2026-05-05 14:25 1.41676 103.86519 31 ft 0 kts 121°
2026-05-05 14:36 1.41674 103.86523 31 ft 4 kts 121°
2026-05-05 14:36 1.41631 103.86538 32 ft 11 kts 219°
2026-05-05 14:37 1.41563 103.86539 33 ft 14 kts 119°
2026-05-05 14:37 1.41552 103.86557 33 ft 0 kts 120°
2026-05-05 14:38 1.41551 103.86558 33 ft 2 kts 122°
2026-05-05 14:39 1.41515 103.86612 34 ft 17 kts 127°
2026-05-05 14:39 1.41444 103.86606 35 ft 19 kts 219°
2026-05-05 14:39 1.41324 103.86530 36 ft 6 kts 64°
2026-05-05 14:39 1.41346 103.86539 36 ft 0 kts 28°
2026-05-05 14:40 1.41366 103.86553 36 ft 21 kts 33°
2026-05-05 14:40 1.41682 103.86752 68 ft 75 kts 30°
2026-05-05 14:40 1.42301 103.87077 471 ft 70 kts 26°
2026-05-05 14:41 1.42598 103.87241 596 ft 77 kts 33°
2026-05-05 14:41 1.43086 103.87399 851 ft 75 kts 343°
2026-05-05 14:41 1.43395 103.87021 1082 ft 75 kts 264°
2026-05-05 14:41 1.43169 103.86519 1273 ft 85 kts 229°
2026-05-05 14:42 1.42771 103.86080 1547 ft 85 kts 225°
2026-05-05 14:42 1.42360 103.85652 1789 ft 87 kts 222°
2026-05-05 14:42 1.41909 103.85277 2094 ft 81 kts 214°
2026-05-05 14:42 1.41456 103.85005 2423 ft 74 kts 206°
2026-05-05 14:43 1.41040 103.84692 2708 ft 71 kts 220°
2026-05-05 14:43 1.40643 103.84351 2901 ft 82 kts 218°
2026-05-05 14:43 1.40206 103.84016 3160 ft 83 kts 215°
2026-05-05 14:43 1.39758 103.83676 3431 ft 80 kts 223°
2026-05-05 14:44 1.39605 103.83145 3676 ft 85 kts 269°
2026-05-05 14:44 1.39615 103.82506 3743 ft 94 kts 271°
2026-05-05 14:44 1.39649 103.81861 3768 ft 94 kts 270°
2026-05-05 14:44 1.39678 103.81209 3770 ft 98 kts 272°
2026-05-05 14:45 1.39720 103.80515 3807 ft 98 kts 271°
2026-05-05 14:45 1.39738 103.79838 3890 ft 96 kts 268°
2026-05-05 14:45 1.39696 103.79191 3992 ft 94 kts 263°
2026-05-05 14:45 1.39698 103.78527 4022 ft 96 kts 292°
2026-05-05 14:46 1.40191 103.78200 4231 ft 89 kts 351°
2026-05-05 14:46 1.40772 103.78151 4531 ft 86 kts 356°
2026-05-05 14:46 1.41359 103.78110 4835 ft 80 kts 355°
2026-05-05 14:46 1.41747 103.77812 5074 ft 82 kts 281°
2026-05-05 14:47 1.41470 103.77400 5299 ft 83 kts 192°
2026-05-05 14:47 1.40851 103.77433 5376 ft 97 kts 173°
2026-05-05 14:47 1.40196 103.77537 5348 ft 94 kts 169°
2026-05-05 14:47 1.39539 103.77600 5297 ft 93 kts 175°
2026-05-05 14:48 1.38884 103.77656 5264 ft 93 kts 175°
2026-05-05 14:48 1.38249 103.77716 5256 ft 90 kts 173°
2026-05-05 14:48 1.37628 103.77783 5260 ft 89 kts 174°
2026-05-05 14:48 1.37041 103.77951 5280 ft 92 kts 135°
2026-05-05 14:49 1.36979 103.78578 5360 ft 95 kts 74°
2026-05-05 14:49 1.37212 103.79207 5365 ft 109 kts 68°
2026-05-05 14:49 1.37498 103.79953 5381 ft 112 kts 66°
2026-05-05 14:49 1.37862 103.80637 5442 ft 113 kts 58°
2026-05-05 14:50 1.38324 103.81276 5503 ft 112 kts 50°
2026-05-05 14:50 1.38863 103.81845 5508 ft 119 kts 44°
2026-05-05 14:50 1.39496 103.82396 5527 ft 121 kts 38°
2026-05-05 14:50 1.40158 103.82860 5672 ft 113 kts 31°
2026-05-05 14:51 1.40855 103.83231 5754 ft 113 kts 26°
2026-05-05 14:51 1.41592 103.83558 5788 ft 115 kts 16°
2026-05-05 14:51 1.42324 103.83336 5825 ft 118 kts 321°
2026-05-05 14:51 1.42968 103.82828 5904 ft 117 kts 320°
2026-05-05 14:52 1.43539 103.82277 6040 ft 112 kts 311°
2026-05-05 14:52 1.44018 103.81688 6022 ft 99 kts 308°
2026-05-05 14:52 1.44408 103.81197 5953 ft 85 kts 309°
2026-05-05 14:52 1.44552 103.80634 5692 ft 90 kts 259°
2026-05-05 14:53 1.44436 103.79969 5290 ft 104 kts 260°
2026-05-05 14:53 1.44303 103.79227 4962 ft 104 kts 258°
2026-05-05 14:53 1.44165 103.78551 4799 ft 95 kts 257°
2026-05-05 14:53 1.44002 103.77925 4621 ft 92 kts 253°
2026-05-05 14:54 1.43783 103.77321 4418 ft 90 kts 237°
2026-05-05 14:54 1.43306 103.76968 4227 ft 88 kts 201°
2026-05-05 14:54 1.42671 103.76879 3914 ft 95 kts 181°
2026-05-05 14:54 1.42051 103.76879 3794 ft 84 kts 179°
2026-05-05 14:55 1.41488 103.76893 3677 ft 77 kts 178°
2026-05-05 14:55 1.40957 103.76924 3596 ft 79 kts 175°
2026-05-05 14:55 1.40396 103.76981 3536 ft 78 kts 175°
2026-05-05 14:55 1.39871 103.77033 3568 ft 73 kts 174°
2026-05-05 14:56 1.39340 103.77118 3491 ft 86 kts 174°
2026-05-05 14:56 1.38752 103.77183 3478 ft 84 kts 164°
2026-05-05 14:56 1.38377 103.77585 3450 ft 81 kts 127°
2026-05-05 14:56 1.38043 103.78028 3428 ft 78 kts 129°
2026-05-05 14:57 1.37923 103.78536 3413 ft 81 kts 85°
2026-05-05 14:57 1.38026 103.79115 3352 ft 88 kts 81°
2026-05-05 14:57 1.38124 103.79721 3270 ft 86 kts 83°
2026-05-05 14:57 1.38222 103.80288 3146 ft 82 kts 82°
2026-05-05 14:58 1.38345 103.80841 2984 ft 82 kts 79°
2026-05-05 14:58 1.38444 103.81401 2789 ft 83 kts 84°
2026-05-05 14:58 1.38559 103.81975 2544 ft 90 kts 77°
2026-05-05 14:58 1.38735 103.82568 2350 ft 87 kts 72°
2026-05-05 14:59 1.38929 103.83140 2171 ft 86 kts 77°
2026-05-05 14:59 1.39087 103.83701 2010 ft 83 kts 78°
2026-05-05 14:59 1.39215 103.84230 1905 ft 76 kts 83°
2026-05-05 14:59 1.39293 103.84726 1917 ft 74 kts 85°
2026-05-05 15:00 1.39401 103.85282 2027 ft 84 kts 67°
2026-05-05 15:00 1.39627 103.85620 1969 ft 90 kts 52°
2026-05-05 15:00 1.40220 103.86202 1943 ft 90 kts 43°
2026-05-05 15:00 1.40696 103.86580 1898 ft 82 kts 40°
2026-05-05 15:01 1.41156 103.86904 1744 ft 80 kts 36°
2026-05-05 15:01 1.41634 103.87191 1582 ft 79 kts 30°
2026-05-05 15:01 1.42110 103.87424 1458 ft 78 kts 26°
2026-05-05 15:01 1.42635 103.87656 1353 ft 78 kts 22°
2026-05-05 15:02 1.43100 103.87651 1318 ft 69 kts 324°
2026-05-05 15:02 1.43256 103.87237 1270 ft 71 kts 259°
2026-05-05 15:02 1.43112 103.86710 1255 ft 83 kts 244°
2026-05-05 15:02 1.42814 103.86227 1199 ft 76 kts 229°
2026-05-05 15:03 1.42464 103.85843 1089 ft 76 kts 224°
2026-05-05 15:03 1.42080 103.85465 977 ft 78 kts 218°
2026-05-05 15:03 1.41689 103.85143 908 ft 67 kts 210°
2026-05-05 15:03 1.41242 103.84873 851 ft 80 kts 207°
2026-05-05 15:04 1.40755 103.84733 975 ft 65 kts 183°
2026-05-05 15:04 1.40353 103.84895 956 ft 71 kts 135°
2026-05-05 15:04 1.40126 103.85377 856 ft 85 kts 90°
2026-05-05 15:04 1.40466 103.85932 459 ft 103 kts 40°
2026-05-05 15:05 1.41549 103.86664 33 ft 78 kts 33°
2026-05-05 15:05 1.41957 103.86940 23 ft 65 kts 37°
2026-05-05 15:05 1.42236 103.87120 20 ft 41 kts 13°
2026-05-05 15:06 1.42298 103.86972 19 ft 0 kts 213°
2026-05-05 15:07 1.42297 103.86972 19 ft 0 kts 212°
2026-05-05 15:07 1.42275 103.86958 20 ft 8 kts 215°
2026-05-05 15:07 1.42214 103.86918 21 ft 13 kts 215°
2026-05-05 15:08 1.42137 103.86867 22 ft 13 kts 213°
2026-05-05 15:08 1.42061 103.86817 24 ft 13 kts 212°
2026-05-05 15:08 1.41978 103.86763 25 ft 15 kts 220°
2026-05-05 15:08 1.41883 103.86701 27 ft 17 kts 212°
2026-05-05 15:09 1.41798 103.86646 29 ft 11 kts 212°
2026-05-05 15:09 1.41793 103.86607 29 ft 8 kts 307°
2026-05-05 15:09 1.41801 103.86593 29 ft 0 kts 302°